DAL1150 KMCO-KATL

Flight info

Callsign DAL1150
Flight time N/A
Altitude 26000
Route JEEMY4 PAINN SHRKS LAIRI LARZZ JJEDI4
Aircraft MD88/M-SDFGIRWY/S

Departure

Time 2026-05-06 00:36
Airport Orlando International Airport (KMCO)

Arrival

Time N/A
Airport Hartsfield Jackson Atlanta International Airport (KATL)
Time Latitude Longitude Altitude Speed Heading
2026-05-06 00:30 28.42390 -81.29792 103 ft 18 kts 181°
2026-05-06 00:30 28.42259 -81.29792 103 ft 19 kts 179°
2026-05-06 00:30 28.42127 -81.29791 103 ft 19 kts 180°
2026-05-06 00:31 28.41993 -81.29791 103 ft 19 kts 180°
2026-05-06 00:31 28.41860 -81.29789 103 ft 19 kts 179°
2026-05-06 00:31 28.41726 -81.29787 103 ft 19 kts 179°
2026-05-06 00:31 28.41593 -81.29788 102 ft 19 kts 179°
2026-05-06 00:32 28.41461 -81.29785 102 ft 19 kts 179°
2026-05-06 00:32 28.41327 -81.29783 102 ft 19 kts 180°
2026-05-06 00:32 28.41192 -81.29782 102 ft 19 kts 179°
2026-05-06 00:32 28.41057 -81.29779 101 ft 19 kts 179°
2026-05-06 00:33 28.40920 -81.29778 101 ft 20 kts 180°
2026-05-06 00:33 28.40828 -81.29749 100 ft 6 kts 115°
2026-05-06 00:33 28.40821 -81.29695 101 ft 8 kts 92°
2026-05-06 00:33 28.40821 -81.29676 101 ft 2 kts 90°
2026-05-06 00:34 28.40821 -81.29653 100 ft 4 kts 88°
2026-05-06 00:34 28.40823 -81.29613 98 ft 6 kts 86°
2026-05-06 00:34 28.40829 -81.29580 98 ft 5 kts 65°
2026-05-06 00:34 28.40852 -81.29565 100 ft 4 kts
2026-05-06 00:35 28.40856 -81.29564 100 ft 0 kts
2026-05-06 00:35 28.41039 -81.29560 100 ft 54 kts 360°
2026-05-06 00:35 28.41627 -81.29566 107 ft 115 kts 359°
2026-05-06 00:35 28.42621 -81.29569 108 ft 168 kts
2026-05-06 00:36 28.43454 -81.29573 363 ft 181 kts 359°
2026-05-06 00:36 28.44648 -81.29694 1285 ft 169 kts 359°
2026-05-06 00:36 28.45471 -81.29659 1496 ft 185 kts 15°
2026-05-06 00:36 28.46737 -81.29015 1416 ft 221 kts 38°
2026-05-06 00:37 28.48062 -81.27948 1748 ft 242 kts 38°
2026-05-06 00:37 28.49468 -81.26836 2263 ft 256 kts 36°
2026-05-06 00:37 28.50970 -81.25701 2932 ft 263 kts 31°
2026-05-06 00:37 28.52717 -81.25042 3703 ft 267 kts
2026-05-06 00:38 28.54584 -81.24836 4460 ft 271 kts
2026-05-06 00:38 28.56480 -81.24761 5230 ft 273 kts 356°
2026-05-06 00:38 28.58378 -81.24907 5986 ft 273 kts 345°
2026-05-06 00:38 28.60169 -81.25642 6599 ft 278 kts 332°
2026-05-06 00:39 28.61914 -81.26605 6848 ft 277 kts 332°
2026-05-06 00:39 28.63638 -81.27565 6970 ft 276 kts 331°
2026-05-06 00:39 28.65264 -81.28715 7087 ft 279 kts 319°
2026-05-06 00:39 28.66760 -81.30092 7905 ft 272 kts 318°
2026-05-06 00:40 28.68202 -81.31452 8798 ft 267 kts 320°
2026-05-06 00:40 28.69621 -81.32774 9523 ft 266 kts 320°
2026-05-06 00:40 28.71060 -81.34098 10210 ft 266 kts 321°
2026-05-06 00:40 28.72558 -81.35451 10403 ft 285 kts 321°
2026-05-06 00:41 28.74214 -81.36817 10554 ft 303 kts 332°
2026-05-06 00:41 28.76285 -81.37580 10711 ft 322 kts 346°
2026-05-06 00:41 28.78547 -81.38039 10891 ft 338 kts 348°
2026-05-06 00:41 28.80919 -81.38480 11123 ft 350 kts 348°
2026-05-06 00:42 28.83341 -81.38920 11641 ft 354 kts 349°
2026-05-06 00:42 28.85783 -81.39366 12201 ft 356 kts 349°
2026-05-06 00:42 28.88244 -81.39830 12733 ft 359 kts 348°
2026-05-06 00:42 28.90717 -81.40318 13246 ft 363 kts 348°
2026-05-06 00:43 28.93222 -81.40833 13798 ft 367 kts 348°
2026-05-06 00:43 28.95751 -81.41346 14361 ft 370 kts 349°
2026-05-06 00:43 28.98309 -81.41715 14967 ft 372 kts 352°
2026-05-06 00:43 29.00898 -81.41997 15512 ft 375 kts 353°
2026-05-06 00:44 29.03476 -81.42251 16117 ft 377 kts 353°
2026-05-06 00:44 29.06093 -81.42505 16730 ft 378 kts 352°
2026-05-06 00:44 29.08723 -81.42767 17290 ft 381 kts 352°
2026-05-06 00:44 29.11378 -81.43034 17852 ft 384 kts 352°
2026-05-06 00:45 29.14052 -81.43288 18431 ft 386 kts 352°
2026-05-06 00:45 29.16738 -81.43538 18911 ft 389 kts 352°
2026-05-06 00:45 29.19448 -81.43790 19376 ft 392 kts 352°
2026-05-06 00:45 29.22188 -81.44047 19828 ft 395 kts 352°
2026-05-06 00:46 29.24938 -81.44309 20302 ft 398 kts 351°
2026-05-06 00:46 29.27704 -81.44573 20797 ft 400 kts 351°
2026-05-06 00:46 29.30450 -81.44836 21200 ft 404 kts 351°
2026-05-06 00:46 29.33266 -81.45108 21632 ft 407 kts 351°
2026-05-06 00:47 29.36092 -81.45382 22104 ft 409 kts 351°
2026-05-06 00:47 29.38934 -81.45656 22525 ft 412 kts 350°
2026-05-06 00:47 29.41805 -81.45933 22932 ft 415 kts 350°
2026-05-06 00:47 29.44696 -81.46212 23353 ft 418 kts 350°
2026-05-06 00:48 29.47602 -81.46492 23753 ft 420 kts 350°
2026-05-06 00:48 29.50517 -81.46772 24179 ft 420 kts 350°
2026-05-06 00:48 29.53437 -81.47052 24645 ft 420 kts 350°
2026-05-06 00:48 29.56348 -81.47330 25110 ft 420 kts 350°
2026-05-06 00:49 29.59259 -81.47606 25530 ft 420 kts 350°
2026-05-06 00:49 29.62191 -81.47878 25777 ft 425 kts 350°
2026-05-06 00:49 29.65107 -81.48145 25900 ft 425 kts 350°
2026-05-06 00:49 29.68021 -81.48405 25963 ft 410 kts 350°
2026-05-06 00:50 29.70794 -81.48642 25991 ft 391 kts 350°
2026-05-06 00:50 29.73490 -81.48878 26012 ft 386 kts 349°
2026-05-06 00:50 29.76178 -81.49125 26025 ft 387 kts 349°
2026-05-06 00:50 29.78876 -81.49380 26031 ft 390 kts 349°
2026-05-06 00:51 29.81587 -81.49635 26031 ft 392 kts 349°
2026-05-06 00:51 29.84309 -81.49889 26049 ft 393 kts 349°
2026-05-06 00:51 29.87038 -81.50140 26040 ft 394 kts 350°
2026-05-06 00:51 29.89745 -81.50514 26037 ft 388 kts 342°
2026-05-06 00:52 29.92290 -81.51313 26033 ft 385 kts 338°
2026-05-06 00:52 29.94834 -81.52263 26030 ft 384 kts 337°
2026-05-06 00:52 29.97333 -81.53217 26029 ft 384 kts 337°
2026-05-06 00:52 29.99875 -81.54181 26028 ft 384 kts 338°
2026-05-06 00:53 30.02419 -81.55133 26024 ft 384 kts 338°
2026-05-06 00:53 30.04976 -81.56072 26023 ft 385 kts 338°
2026-05-06 00:53 30.07536 -81.56996 26014 ft 385 kts 338°
2026-05-06 00:53 30.10096 -81.57910 26014 ft 386 kts 338°
2026-05-06 00:54 30.12660 -81.58820 26016 ft 386 kts 338°
2026-05-06 00:54 30.15233 -81.59734 26024 ft 386 kts 339°
2026-05-06 00:54 30.17804 -81.60648 26022 ft 387 kts 339°
2026-05-06 00:54 30.20346 -81.61552 26019 ft 387 kts 339°
2026-05-06 00:55 30.22919 -81.62469 26017 ft 387 kts 338°
2026-05-06 00:55 30.25490 -81.63388 26036 ft 386 kts 338°
2026-05-06 00:55 30.28052 -81.64304 26036 ft 385 kts 338°
2026-05-06 00:55 30.30611 -81.65221 26037 ft 384 kts 338°
2026-05-06 00:56 30.33168 -81.66138 26033 ft 384 kts 338°
2026-05-06 00:56 30.35724 -81.67056 26005 ft 385 kts 338°
2026-05-06 00:56 30.38286 -81.67978 26006 ft 386 kts 338°
2026-05-06 00:56 30.40854 -81.68903 26006 ft 386 kts 338°
2026-05-06 00:57 30.43421 -81.69828 26006 ft 386 kts 338°
2026-05-06 00:57 30.45990 -81.70755 26006 ft 387 kts 338°
2026-05-06 00:57 30.48561 -81.71682 26006 ft 387 kts 338°
2026-05-06 00:57 30.51105 -81.72600 26006 ft 387 kts 338°
2026-05-06 00:58 30.53679 -81.73528 26006 ft 387 kts 338°
2026-05-06 00:58 30.56250 -81.74456 26005 ft 386 kts 338°
2026-05-06 00:58 30.58812 -81.75380 26006 ft 385 kts 338°
2026-05-06 00:58 30.61373 -81.76306 26002 ft 385 kts 338°
2026-05-06 00:59 30.63861 -81.77397 26008 ft 381 kts 332°
2026-05-06 00:59 30.66247 -81.78748 26007 ft 381 kts 329°
2026-05-06 00:59 30.68601 -81.80167 26006 ft 381 kts 329°
2026-05-06 00:59 30.70954 -81.81594 26018 ft 382 kts 329°
2026-05-06 01:00 30.73317 -81.83015 26010 ft 382 kts 329°
2026-05-06 01:00 30.75686 -81.84423 26008 ft 383 kts 329°
2026-05-06 01:00 30.78062 -81.85816 26007 ft 382 kts 330°
2026-05-06 01:00 30.80438 -81.87195 26006 ft 381 kts 330°
2026-05-06 01:01 30.82816 -81.88567 26008 ft 381 kts 330°
2026-05-06 01:01 30.85191 -81.89934 26006 ft 381 kts 330°
2026-05-06 01:01 30.87565 -81.91302 26006 ft 381 kts 330°
2026-05-06 01:01 30.89912 -81.92656 26006 ft 381 kts 330°
2026-05-06 01:02 30.92296 -81.94034 26006 ft 382 kts 330°
2026-05-06 01:02 30.94675 -81.95411 26005 ft 382 kts 330°
2026-05-06 01:02 30.97053 -81.96790 26000 ft 382 kts 330°
2026-05-06 01:02 30.99434 -81.98172 26000 ft 382 kts 330°
2026-05-06 01:03 31.01814 -81.99557 26005 ft 383 kts 330°
2026-05-06 01:03 31.04198 -82.00947 26002 ft 383 kts 330°
2026-05-06 01:03 31.06581 -82.02338 26002 ft 383 kts 330°
2026-05-06 01:03 31.08966 -82.03729 26001 ft 383 kts 330°
2026-05-06 01:04 31.11344 -82.05115 26002 ft 382 kts 330°
2026-05-06 01:04 31.13719 -82.06500 26002 ft 381 kts 330°
2026-05-06 01:04 31.16091 -82.07883 26001 ft 381 kts 330°
2026-05-06 01:04 31.18458 -82.09263 26003 ft 381 kts 330°
2026-05-06 01:05 31.20829 -82.10648 26003 ft 381 kts 330°
2026-05-06 01:05 31.23202 -82.12035 26002 ft 382 kts 330°
2026-05-06 01:05 31.25580 -82.13425 26002 ft 382 kts 330°
2026-05-06 01:05 31.27962 -82.14819 26002 ft 383 kts 330°
2026-05-06 01:06 31.30347 -82.16215 26013 ft 383 kts 330°
2026-05-06 01:06 31.32732 -82.17612 26008 ft 384 kts 330°
2026-05-06 01:06 31.35095 -82.18996 26003 ft 384 kts 330°
2026-05-06 01:06 31.37482 -82.20396 25996 ft 383 kts 330°
2026-05-06 01:07 31.39867 -82.21797 25997 ft 383 kts 330°
2026-05-06 01:07 31.42243 -82.23196 26002 ft 382 kts 330°
2026-05-06 01:07 31.44619 -82.24596 25999 ft 382 kts 329°
2026-05-06 01:07 31.46992 -82.25994 26002 ft 381 kts 329°
2026-05-06 01:08 31.49363 -82.27390 26004 ft 381 kts 329°
2026-05-06 01:08 31.51735 -82.28788 26002 ft 382 kts 330°
2026-05-06 01:08 31.54115 -82.30189 25994 ft 382 kts 330°
2026-05-06 01:08 31.56495 -82.31592 25997 ft 383 kts 330°
2026-05-06 01:09 31.58876 -82.32994 26008 ft 383 kts 330°
2026-05-06 01:09 31.61260 -82.34399 26002 ft 384 kts 330°
2026-05-06 01:09 31.63644 -82.35806 25995 ft 384 kts 329°
2026-05-06 01:09 31.66000 -82.37198 25996 ft 384 kts 329°
2026-05-06 01:10 31.68384 -82.38607 25994 ft 384 kts 329°
2026-05-06 01:10 31.70769 -82.40016 25981 ft 384 kts 329°
2026-05-06 01:10 31.73150 -82.41425 25974 ft 383 kts 329°
2026-05-06 01:10 31.75532 -82.42834 25977 ft 383 kts 329°
2026-05-06 01:11 31.77920 -82.44246 25982 ft 384 kts 329°
2026-05-06 01:11 31.80311 -82.45661 25983 ft 384 kts 329°
2026-05-06 01:11 31.82672 -82.47059 25983 ft 385 kts 329°
2026-05-06 01:11 31.85060 -82.48476 25983 ft 385 kts 329°
2026-05-06 01:12 31.87453 -82.49896 25993 ft 385 kts 329°
2026-05-06 01:12 31.89852 -82.51320 25992 ft 385 kts 329°
2026-05-06 01:12 31.92245 -82.52741 25993 ft 385 kts 329°
2026-05-06 01:12 31.94632 -82.54161 25986 ft 384 kts 329°
2026-05-06 01:13 31.96943 -82.55707 25990 ft 380 kts 321°
2026-05-06 01:13 31.98989 -82.57667 25990 ft 379 kts 316°
2026-05-06 01:13 32.00958 -82.59744 25985 ft 379 kts 316°
2026-05-06 01:13 32.02919 -82.61834 25985 ft 380 kts 316°
2026-05-06 01:14 32.06862 -82.65991 25983 ft 381 kts 316°
2026-05-06 01:14 32.08851 -82.68052 25981 ft 381 kts 317°
2026-05-06 01:14 32.10852 -82.70105 25988 ft 382 kts 317°
2026-05-06 01:15 32.12837 -82.72127 25982 ft 381 kts 317°
2026-05-06 01:15 32.14844 -82.74165 26001 ft 380 kts 317°
2026-05-06 01:15 32.16849 -82.76199 25991 ft 380 kts 317°
2026-05-06 01:15 32.18853 -82.78237 25993 ft 379 kts 316°
2026-05-06 01:16 32.20848 -82.80267 25985 ft 379 kts 316°
2026-05-06 01:16 32.22840 -82.82296 25986 ft 378 kts 316°
2026-05-06 01:16 32.24833 -82.84331 25984 ft 377 kts 316°
2026-05-06 01:16 32.26816 -82.86360 25981 ft 377 kts 316°
2026-05-06 01:17 32.28801 -82.88394 25980 ft 378 kts 316°
2026-05-06 01:17 32.30784 -82.90430 25993 ft 378 kts 316°
2026-05-06 01:17 32.32766 -82.92468 25994 ft 378 kts 316°
2026-05-06 01:17 32.34755 -82.94514 25976 ft 378 kts 316°
2026-05-06 01:18 32.36714 -82.96526 25848 ft 378 kts 316°
2026-05-06 01:18 32.38705 -82.98571 25441 ft 376 kts 316°
2026-05-06 01:18 32.40655 -83.00572 25358 ft 368 kts 316°
2026-05-06 01:18 32.42584 -83.02562 25210 ft 369 kts 316°
2026-05-06 01:19 32.44531 -83.04572 25037 ft 373 kts 316°
2026-05-06 01:19 32.46493 -83.06598 24810 ft 375 kts 316°
2026-05-06 01:19 32.48467 -83.08633 24559 ft 375 kts 316°
2026-05-06 01:19 32.50433 -83.10659 24283 ft 375 kts 316°
2026-05-06 01:20 32.52403 -83.12688 23988 ft 375 kts 316°
2026-05-06 01:20 32.54371 -83.14715 23699 ft 374 kts 316°
2026-05-06 01:20 32.56309 -83.16713 23373 ft 374 kts 316°
2026-05-06 01:20 32.58265 -83.18732 23059 ft 371 kts 316°
2026-05-06 01:21 32.60205 -83.20737 22737 ft 369 kts 316°
2026-05-06 01:21 32.62129 -83.22734 22438 ft 366 kts 316°
2026-05-06 01:21 32.64035 -83.24717 22148 ft 363 kts 316°
2026-05-06 01:21 32.65930 -83.26689 21841 ft 361 kts 316°
2026-05-06 01:22 32.67817 -83.28653 21541 ft 360 kts 316°
2026-05-06 01:22 32.69697 -83.30609 21239 ft 359 kts 316°
2026-05-06 01:22 32.71572 -83.32561 20952 ft 357 kts 316°
2026-05-06 01:22 32.73441 -83.34504 20631 ft 357 kts 316°
2026-05-06 01:23 32.75303 -83.36440 20319 ft 355 kts 316°
2026-05-06 01:23 32.77161 -83.38374 20006 ft 354 kts 316°
2026-05-06 01:23 32.79006 -83.40296 19692 ft 352 kts 316°
2026-05-06 01:23 32.80842 -83.42209 19391 ft 350 kts 316°
2026-05-06 01:24 32.82049 -83.43467 19191 ft 349 kts 316°
2026-05-06 01:24 32.83876 -83.45372 18905 ft 347 kts 316°
2026-05-06 01:24 32.85691 -83.47267 18603 ft 345 kts 316°
2026-05-06 01:24 32.87494 -83.49149 18304 ft 344 kts 316°
2026-05-06 01:25 32.89268 -83.51000 18210 ft 335 kts 316°
2026-05-06 01:25 32.91027 -83.52837 18130 ft 337 kts 316°
2026-05-06 01:25 32.92786 -83.54673 18054 ft 335 kts 316°
2026-05-06 01:25 32.94532 -83.56498 17972 ft 334 kts 316°
2026-05-06 01:26 32.96284 -83.58335 17605 ft 339 kts 316°
2026-05-06 01:26 32.98068 -83.60216 16701 ft 345 kts 316°
2026-05-06 01:26 32.99870 -83.62118 15897 ft 347 kts 316°
2026-05-06 01:26 33.01672 -83.64011 15136 ft 340 kts 316°
2026-05-06 01:27 33.03417 -83.65839 14431 ft 328 kts 316°
2026-05-06 01:27 33.05105 -83.67605 13754 ft 317 kts 316°
2026-05-06 01:27 33.06716 -83.69290 13071 ft 308 kts 316°
2026-05-06 01:27 33.08282 -83.70927 12785 ft 288 kts 316°
2026-05-06 01:28 33.09745 -83.72454 12396 ft 275 kts 315°
2026-05-06 01:28 33.11169 -83.73946 12128 ft 272 kts 315°
2026-05-06 01:28 33.12589 -83.75441 11936 ft 274 kts 315°
2026-05-06 01:28 33.14022 -83.76957 11786 ft 276 kts 315°
2026-05-06 01:29 33.15473 -83.78490 11483 ft 280 kts 315°
2026-05-06 01:29 33.16923 -83.80028 11263 ft 279 kts 315°
2026-05-06 01:29 33.18374 -83.81570 10928 ft 279 kts 315°
2026-05-06 01:29 33.19807 -83.83121 10562 ft 275 kts 313°
2026-05-06 01:30 33.21162 -83.84694 10277 ft 268 kts 311°
2026-05-06 01:30 33.22462 -83.86249 10018 ft 261 kts 311°
2026-05-06 01:30 33.23718 -83.87766 9638 ft 259 kts 310°
2026-05-06 01:30 33.24983 -83.89304 9210 ft 260 kts 310°
2026-05-06 01:31 33.26253 -83.90846 8783 ft 260 kts 310°
2026-05-06 01:31 33.27527 -83.92387 8383 ft 259 kts 310°
2026-05-06 01:31 33.28785 -83.93898 8196 ft 255 kts 310°
2026-05-06 01:31 33.30036 -83.95396 8095 ft 256 kts 310°
2026-05-06 01:32 33.31303 -83.96916 8051 ft 259 kts 310°
2026-05-06 01:32 33.32578 -83.98448 8035 ft 261 kts 310°
2026-05-06 01:32 33.33859 -83.99985 8025 ft 261 kts 310°
2026-05-06 01:32 33.35140 -84.01521 8020 ft 261 kts 311°
2026-05-06 01:33 33.36613 -84.02815 8024 ft 269 kts 334°
2026-05-06 01:33 33.38461 -84.03338 8027 ft 276 kts 345°
2026-05-06 01:33 33.40315 -84.03889 7894 ft 274 kts 335°
2026-05-06 01:33 33.42025 -84.04790 7641 ft 261 kts 327°
2026-05-06 01:34 33.43587 -84.05830 7400 ft 254 kts 324°
2026-05-06 01:34 33.45084 -84.06928 7184 ft 249 kts 322°
2026-05-06 01:34 33.46498 -84.08024 6933 ft 235 kts 321°
2026-05-06 01:34 33.47812 -84.09076 6694 ft 225 kts 320°
2026-05-06 01:35 33.49097 -84.10120 6461 ft 222 kts 320°
2026-05-06 01:35 33.50365 -84.11159 6216 ft 220 kts 320°
2026-05-06 01:35 33.51630 -84.12194 5967 ft 221 kts 320°
2026-05-06 01:35 33.52900 -84.13227 5719 ft 220 kts 321°
2026-05-06 01:36 33.54159 -84.14241 5506 ft 216 kts 321°
2026-05-06 01:36 33.55408 -84.15241 5259 ft 216 kts 321°
2026-05-06 01:36 33.56656 -84.16241 5011 ft 215 kts 321°
2026-05-06 01:36 33.57901 -84.17236 4762 ft 215 kts 321°
2026-05-06 01:37 33.59139 -84.18221 4497 ft 211 kts 322°
2026-05-06 01:37 33.60354 -84.19184 4261 ft 207 kts 321°
2026-05-06 01:37 33.61534 -84.20115 4121 ft 199 kts 321°